Location: The D'Auria's Ocala Star Observatory
(29.0276°N, 82.1742°W)
Time: 07:32:31
(UTC-04:00)

Daily predictions for brighter satellites

Satellite Brightness Start Highest point End
(mag) Time Altitude Azimuth Time Altitude Azimuth Time Altitude Azimuth
EO 1 Del DPAF 3.6 20:20:01 10° N 20:23:50 71° WNW 20:27:37 10° SSW
Cosmos 1269 Rocket 4.2 20:20:18 10° NNW 20:25:37 79° WSW 20:30:54 10° S
Sakura Rocket 3.2 20:23:50 10° WSW 20:29:19 70° S 20:33:26 10° E
Cosmos 2221 3.3 20:26:14 10° SSW 20:30:25 56° W 20:34:36 10° N
ATLAS 3B CENTAUR R/B 4.2 20:15:33 10° W 20:34:19 57° SSW 20:41:19 10° SE
Cosmos 1340 2.6 20:31:58 10° S 20:35:41 65° E 20:39:27 10° NNE
Delta 128 4.2 20:33:49 10° W 20:38:53 69° S 20:44:14 13° ESE
H-2A R/B 4.0 20:36:18 10° S 20:39:49 42° W 20:43:23 10° NNW
SPOT 3 Rocket 4.1 20:35:09 10° S 20:40:16 63° WSW 20:45:23 10° NNW
HJ-1C 3.3 20:38:42 10° SSE 20:42:00 65° ENE 20:45:19 10° N
Fermi 4.2 20:40:15 10° WSW 20:44:15 49° S 20:47:23 16° ESE
Thor Agena Rocket 3.6 20:40:22 10° NNE 20:45:34 61° ESE 20:50:46 10° S
In-Cosmos 22 Rocket 4.1 20:40:32 10° N 20:45:54 65° E 20:51:10 10° SSE
XTE 4.1 20:45:28 10° SW 20:46:51 15° S 20:47:18 15° SSE
ATLAS 2AS CENTAUR R/B 4.1 20:41:22 10° N 20:47:33 25° NE 20:52:15 14° E
ASTRO E2 3.1 20:44:28 10° SW 20:48:17 43° SSE 20:51:07 16° E
OAO 2 Rocket 4.0 20:45:22 10° WNW 20:50:27 50° N 20:54:42 14° E
NOSS 3 (A) 4.2 20:47:47 10° SSW 20:50:36 64° ESE 20:53:20 10° NE
Cosmos 1328 Rocket 4.0 20:49:04 10° SSE 20:53:10 40° E 20:57:18 10° NNE
Cosmos 2154 Rocket 4.0 20:48:10 10° S 20:54:26 80° E 21:00:40 10° N
Cosmos 1805 Rocket 3.4 20:50:23 10° N 20:54:44 81° E 20:59:02 10° S
ATLAS CENTAUR R/B 1.4 20:51:51 10° SSW 20:55:25 68° WNW 20:59:06 10° NNE
SL-8 R/B 4.5 20:51:21 10° WSW 20:56:01 54° NW 21:00:43 10° NE
H-2A R/B 1.4 20:53:19 10° W 20:57:39 40° SSW 20:58:36 24° SSE
SL-16 R/B 3.8 21:01:33 15° E 21:01:33 15° E 21:03:37 10° ENE
Resurs 01 Rocket 2.3 21:02:01 21° SE 21:04:18 35° ENE 21:08:20 10° N
Meteor 2-15 4.4 20:58:44 10° N 21:04:52 76° E 21:10:56 10° S
SJ-6B 3.1 21:04:02 10° S 21:08:05 70° W 21:12:04 10° NNW
OAO 3 Copernicus 4.2 21:04:19 10° WSW 21:09:20 78° SSE 21:13:03 18° ENE
Haruka 3.1 21:05:19 10° WNW 21:14:02 75° SSW 21:15:52 31° ESE
Cosmos 1939 Rocket 2.8 21:13:06 29° SE 21:14:49 55° ENE 21:18:38 10° N
deb Centaur AC-2 4.0 21:11:02 10° W 21:15:23 82° N 21:17:41 30° E
Meteor 2-3 Rocket 3.9 21:11:26 10° N 21:16:54 52° E 21:20:11 24° SSE
Cosmos 2341 Rocket 4.0 21:11:24 10° S 21:17:46 82° E 21:24:07 10° N
NOSS 0 Rocket 4.0 21:13:17 10° SSW 21:19:26 83° WNW 21:25:39 10° NNE
Cosmos 962 Rocket 4.4 21:13:31 10° S 21:19:37 88° E 21:25:47 10° N
Cosmos 2218 Rocket 4.3 21:17:58 16° SSE 21:22:37 44° E 21:28:37 10° NNE
Cosmos 1980 3.7 21:20:32 10° SSW 21:26:13 84° WNW 21:31:55 10° NNE
USA 267 3.6 21:26:58 10° ENE 21:32:57 38° SE 21:38:53 10° SSW
Cosmos 2366 rocket 4.1 21:31:03 27° SSE 21:34:07 50° E 21:40:07 10° NNE
Cosmos 1666 Rocket 4.3 21:31:03 10° NNW 21:35:24 54° W 21:39:02 14° SSW
H-2A R/B 3.8 21:36:33 16° NE 21:36:33 16° NE 21:38:34 10° NNE
ERS-2 3.4 21:34:33 17° SSW 21:36:58 38° W 21:40:25 10° NNW
Cosmos 2333 Rocket 3.7 21:31:56 10° SW 21:37:09 38° WNW 21:42:23 10° N
Resurs 1-3 3.5 21:35:47 35° S 21:37:35 83° WSW 21:41:59 10° NNW
GPS 2-05 Rocket1 4.4 21:34:55 10° W 21:37:37 24° SW 21:37:37 24° SW
Cosmos 1371 Rocket 3.9 21:33:02 10° S 21:38:16 69° ESE 21:43:35 10° NNE
Cosmos 1151 Rocket 2.9 21:35:40 22° S 21:38:21 85° W 21:42:37 10° N
Cosmos 1455 3.7 21:35:19 10° SSW 21:38:51 37° W 21:42:26 10° NNW
Cosmos 1408 4.0 21:36:07 10° NNE 21:38:11 27° NE 21:38:11 27° NE
USA 186 3.7 21:40:40 20° WNW 21:40:40 20° WNW 21:41:47 10° NW
Cosmos 220 Rocket 3.9 21:36:18 10° N 21:40:35 64° ENE 21:40:43 64° E
Cosmos 1933 Rocket 3.8 21:37:14 10° N 21:41:04 48° ENE 21:41:04 48° ENE
SL-8 Rocket 3.9 21:36:51 10° S 21:43:10 85° E 21:49:28 10° N
Cosmos 1844 Rocket 3.4 21:41:44 10° NNW 21:47:12 50° WSW 21:50:46 21° S
YAOGAN 6 4.0 21:48:33 28° SW 21:49:44 36° W 21:53:05 10° NNW
Cosmos 2237 Rocket 3.0 21:48:13 10° SW 21:53:37 49° WNW 21:59:04 10° N
Cosmos 1844 4.1 21:48:29 10° NNW 21:54:06 59° WSW 21:56:42 31° S
SJ-11-01 4.5 21:53:31 45° SSW 21:54:47 67° WSW 21:59:26 10° NNW
Cosmos 2056 Rocket 3.4 21:57:10 32° SSW 21:59:44 88° ESE 22:05:10 10° NNE
Genesis I 4.3 22:02:13 10° NNW 22:05:02 42° NNW 22:05:02 42° NNW
Cosmos 2098 Rocket 3.3 22:07:13 77° NW 22:07:13 77° NW 22:11:11 10° N
NOAA 11 4.3 22:05:45 54° SSW 22:07:00 74° WSW 22:12:30 10° NNW
Cosmos 2278 Rocket 2.1 22:04:16 10° NNW 22:09:51 74° ENE 22:09:51 74° ENE
Cosmos 1624 Rocket 4.5 22:13:55 25° SW 22:16:48 57° WNW 22:21:55 10° N
ATLAS 2A CENTAUR R/B 3.6 22:06:20 10° WSW 22:25:44 67° S 22:27:46 57° ESE
OAO 2 Rocket 4.4 22:30:17 10° WNW 22:33:39 40° W 22:33:39 40° W
ATLAS 2AS CENTAUR R/B 3.0 22:31:31 10° NW 22:38:59 59° WSW 22:39:43 57° SW
Resurs 01 Rocket 4.2 22:39:35 13° WSW 22:40:48 14° W 22:43:13 10° WNW
SL-16 R/B 3.0 22:43:10 45° W 22:43:49 47° WNW 22:49:16 10° N
GEOS 3 Rocket 4.4 22:39:07 10° NNE 22:43:44 48° NW 22:43:44 48° NW
ARGOS 4.1 22:48:16 45° NW 22:48:16 45° NW 22:52:04 10° NNW
Cosmos 2344 3.5 22:39:59 10° SSW 22:47:48 79° WNW 22:55:41 10° NNE
NOSS 3-4 (A) 4.3 23:02:20 10° NNW 23:07:53 54° N 23:07:53 54° N
NOSS 3-4 (C) 4.3 23:02:26 10° NNW 23:07:59 54° N 23:07:59 54° N
H-2A R/B 4.1 23:17:10 23° NW 23:17:10 23° NW 23:19:15 10° NNW
USA 267 4.1 23:09:43 10° NNE 23:15:52 46° NW 23:22:02 10° WSW
